Double Island Point Observation History
Time Wind Speed Temp Pressure Rel. Hum Rain
30/09:00am S 9-14 kts 24.3°c 1016.7 hPa 85% 0.0mm
30/08:30am S 9-11 kts 24.3°c 1016.7 hPa 81% 0.0mm
30/08:00am ESE 8-10 kts 26.0°c 1016.4 hPa 72% 0.0mm
30/07:30am ESE 9-12 kts 25.4°c 1016.0 hPa 72% 0.0mm
30/07:00am E 8-9 kts 24.3°c 1015.7 hPa 78% 0.0mm
30/06:30am E 8-9 kts 23.4°c 1015.6 hPa 80% 0.0mm
30/06:00am E 8-10 kts 22.8°c 1015.3 hPa 82% 0.0mm
30/05:30am E 7-9 kts 22.8°c 1015.1 hPa 83% 0.0mm
30/05:00am E 7-9 kts 23.1°c 1015.2 hPa 79% 0.0mm
30/04:30am ESE 8-10 kts 23.1°c 1015.1 hPa 81% 0.0mm
30/04:00am ESE 8-10 kts 23.0°c 1015.2 hPa 81% 0.0mm
30/03:30am ESE 7-8 kts 23.0°c 1015.5 hPa 81% 0.0mm
30/03:00am ESE 8-9 kts 23.0°c 1015.5 hPa 82% 0.0mm
30/02:30am ESE 9-11 kts 23.0°c 1015.7 hPa 80% 0.0mm
30/02:00am ESE 9-11 kts 23.0°c 1016.0 hPa 79% 0.0mm
30/01:30am ESE 8-10 kts 23.4°c 1016.4 hPa 79% 0.0mm
30/01:00am E 8-9 kts 23.1°c 1016.6 hPa 79% 0.0mm
30/12:30am E 9-10 kts 23.1°c 1016.7 hPa 83% 0.0mm
30/12:00am E 8-10 kts 23.1°c 1016.9 hPa 87% 0.0mm
Time Wind Speed Temp Pressure Rel. Hum Rain
29/11:30pm ENE 9-12 kts 23.4°c 1016.9 hPa 84% 0.0mm
29/11:00pm ESE 11-13 kts 23.4°c 1017.0 hPa 82% 0.0mm
29/10:30pm ESE 11-13 kts 23.4°c 1017.3 hPa 81% 0.0mm
29/10:00pm E 10-13 kts 23.6°c 1017.6 hPa 79% 0.0mm
29/09:30pm E 10-13 kts 23.3°c 1017.5 hPa 81% 0.0mm
29/09:00pm ENE 10-15 kts 23.5°c 1017.4 hPa 80% 0.0mm
29/08:30pm ESE 15-20 kts 23.8°c 1017.1 hPa 83% 0.0mm
29/08:00pm ESE 13-17 kts 23.8°c 1017.1 hPa 78% 0.0mm
29/07:30pm ESE 12-14 kts 23.7°c 1017.0 hPa 77% 0.0mm
29/07:00pm ESE 12-14 kts 23.8°c 1016.9 hPa 78% 0.0mm
29/06:30pm ESE 11-13 kts 23.7°c 1016.6 hPa 80% 0.0mm
29/06:00pm ESE 10-12 kts 23.7°c 1016.4 hPa 77% 0.0mm
29/05:30pm ESE 11-13 kts 23.9°c 1016.2 hPa 75% 0.0mm
29/05:00pm ESE 12-14 kts 23.9°c 1015.9 hPa 78% 0.0mm
29/04:30pm ESE 13-15 kts 24.3°c 1015.8 hPa 76% 0.0mm
29/04:00pm ESE 13-15 kts 24.6°c 1015.5 hPa 74% 0.0mm
29/03:30pm SE 12-14 kts 25.0°c 1015.6 hPa 73% 0.0mm
29/03:00pm SE 11-12 kts 25.1°c 1015.7 hPa 72% 0.0mm
29/02:30pm SE 13-15 kts 25.5°c 1015.9 hPa 72% 0.0mm
29/02:00pm SE 12-14 kts 25.5°c 1015.9 hPa 71% 0.0mm
29/01:30pm SE 11-13 kts 25.7°c 1016.0 hPa 71% 0.0mm
29/01:00pm SE 12-14 kts 25.6°c 1016.1 hPa 72% 0.0mm
29/12:30pm SE 13-16 kts 25.7°c 1016.4 hPa 76% 0.0mm
29/12:00pm ESE 10-12 kts 26.5°c 1016.9 hPa 71% 0.0mm
29/11:30am SE 11-13 kts 25.9°c 1017.2 hPa 69% 0.0mm
29/11:00am ESE 10-12 kts 26.3°c 1017.6 hPa 71% 0.0mm
29/10:30am ESE 10-12 kts 26.0°c 1017.7 hPa 71% 0.0mm
29/10:00am ESE 10-13 kts 26.1°c 1017.7 hPa 71% 0.0mm
29/09:30am ESE 12-14 kts 25.9°c 1017.8 hPa 72% 0.0mm
29/09:00am ESE 13-16 kts 25.5°c 1017.9 hPa 70% 2.8mm
29/08:30am ESE 13-15 kts 25.1°c 1017.8 hPa 73% 2.8mm
29/08:00am ESE 12-15 kts 24.8°c 1017.7 hPa 76% 2.8mm
29/07:30am ESE 14-15 kts 24.3°c 1017.4 hPa 79% 2.8mm
29/07:00am ESE 13-15 kts 23.7°c 1017.1 hPa 84% 2.8mm
29/06:30am ESE 12-15 kts 23.1°c 1016.7 hPa 87% 2.8mm
29/06:00am ESE 11-13 kts 22.4°c 1016.2 hPa 91% 2.8mm
29/05:30am ESE 12-15 kts 22.3°c 1016.0 hPa 90% 2.8mm
29/05:00am E 13-14 kts 22.3°c 1015.6 hPa 89% 2.8mm
29/04:30am ESE 13-16 kts 22.4°c 1015.6 hPa 89% 2.8mm
29/04:00am ESE 12-14 kts 22.3°c 1015.6 hPa 87% 2.8mm
29/03:30am ESE 9-11 kts 22.0°c 1015.7 hPa 87% 2.8mm
29/03:00am E 11-13 kts 21.8°c 1015.7 hPa 94% 2.8mm
29/02:30am NE 7-10 kts 21.3°c 1016.1 hPa 99% 2.8mm
29/02:00am ENE 6-9 kts 21.1°c 1016.2 hPa 98% 2.8mm
29/01:30am NE 10-16 kts 21.2°c 1016.8 hPa 99% 2.0mm
29/01:00am ENE 10-13 kts 20.9°c 1017.2 hPa 95% 1.0mm
29/12:30am ENE 16-24 kts 21.9°c 1017.2 hPa 89% 0.4mm
29/12:00am E 12-14 kts 22.0°c 1017.2 hPa 82% 0.4mm
Time Wind Speed Temp Pressure Rel. Hum Rain
28/11:30pm E 16-20 kts 22.0°c 1017.3 hPa 88% 0.4mm
28/11:00pm E 16-20 kts 22.2°c 1017.5 hPa 85% 0.4mm
28/10:30pm SE 16-19 kts 23.0°c 1017.6 hPa 86% 0.4mm
28/10:00pm SE 15-18 kts 22.8°c 1017.6 hPa 84% 0.4mm
28/09:30pm SE 18-20 kts 22.5°c 1017.7 hPa 89% 0.4mm
28/09:00pm SSE 16-20 kts 22.0°c 1017.6 hPa 93% 0.4mm
28/08:30pm SE 20-24 kts 22.3°c 1017.4 hPa 92% 0.4mm
28/08:00pm SSE 15-19 kts 21.9°c 1017.1 hPa 96% 0.4mm
28/07:30pm S 15-19 kts 22.0°c 1017.1 hPa 94% 0.4mm
28/07:00pm S 16-19 kts 21.7°c 1016.9 hPa 98% 0.4mm
28/06:30pm S 11-13 kts 21.2°c 1016.7 hPa 98% 0.4mm
28/06:00pm SSW 11-14 kts 21.4°c 1017.0 hPa 94% 0.4mm
28/05:30pm SE 11-12 kts 21.9°c 1016.9 hPa 86% 0.4mm
28/05:00pm ESE 12-13 kts 21.5°c 1016.6 hPa 91% 0.4mm
28/04:30pm SE 15-20 kts 21.0°c 1016.6 hPa 92% 0.2mm
28/04:21pm ESE 19-26 kts 21.0°c 1016.4 hPa 89% 0.2mm
28/04:00pm E 18-29 kts 22.0°c 1016.0 hPa 85% 0.2mm
28/03:58pm E 15-28 kts 22.3°c 1016.1 hPa 87% 0.2mm
28/03:30pm SSE 10-16 kts 22.9°c 1016.5 hPa 86% 0.2mm
28/03:00pm SE 11-15 kts 24.3°c 1016.7 hPa 79% 0.2mm
28/02:30pm SE 11-13 kts 24.6°c 1016.7 hPa 79% 0.2mm
28/02:00pm ESE 11-14 kts 24.6°c 1016.6 hPa 85% 0.2mm
28/01:30pm E 15-18 kts 23.2°c 1016.8 hPa 79% 0.2mm
28/01:00pm E 22-25 kts 24.5°c 1016.8 hPa 80% 0.2mm
28/12:48pm ESE 23-27 kts 24.5°c 1017.1 hPa 79% 0.2mm
28/12:30pm ESE 20-23 kts 24.9°c 1017.2 hPa 80% 0.2mm
28/12:00pm S 19-24 kts 23.8°c 1017.3 hPa 85% 0.2mm
28/11:30am S 20-25 kts 23.9°c 1017.6 hPa 87% 0.2mm
28/11:00am S 22-28 kts 23.3°c 1017.9 hPa 88% 0.2mm
28/10:30am S 23-27 kts 23.0°c 1018.2 hPa 89% 0.0mm
28/10:00am S 23-28 kts 22.8°c 1018.2 hPa 89% 0.0mm
28/09:30am S 23-29 kts 22.2°c 1017.9 hPa 93% 0.0mm
28/09:02am S 21-35 kts 21.8°c 1017.9 hPa 95% 0.0mm
28/09:00am S 21-27 kts 21.6°c 1018.1 hPa 94% 9.0mm
28/08:48am SSE 19-24 kts 22.4°c 1018.2 hPa 86% 9.0mm
28/08:30am SE 17-21 kts 24.6°c 1018.2 hPa 80% 9.0mm
28/08:00am SE 17-21 kts 23.7°c 1018.0 hPa 83% 9.0mm
28/07:30am S 17-21 kts 21.4°c 1017.8 hPa 99% 9.0mm
28/07:00am SSW 17-24 kts 20.8°c 1017.4 hPa 99% 9.0mm
28/06:40am S 17-27 kts 20.9°c 1017.3 hPa 99% 8.8mm
28/06:30am S 17-23 kts 21.1°c 1017.2 hPa 99% 8.8mm
28/06:00am SSW 19-29 kts 21.0°c 1017.0 hPa 99% 8.8mm
28/05:59am SSW 19-29 kts 21.1°c 1017.0 hPa 99% 8.8mm
28/05:30am S 20-26 kts 20.6°c 1016.8 hPa 99% 8.8mm
28/05:00am S 21-27 kts 20.8°c 1016.5 hPa 99% 8.8mm
28/04:30am S 19-25 kts 20.9°c 1016.5 hPa 98% 8.8mm
28/04:06am S 17-28 kts 20.9°c 1016.2 hPa 95% 8.8mm
28/04:00am SSE 17-24 kts 21.3°c 1016.6 hPa 92% 8.8mm
28/03:30am SE 18-22 kts 23.0°c 1016.6 hPa 80% 8.8mm
28/03:00am SE 21-24 kts 22.8°c 1016.6 hPa 80% 8.8mm
28/02:30am SE 21-23 kts 22.6°c 1016.7 hPa 84% 8.8mm
28/02:00am SE 22-26 kts 22.3°c 1016.9 hPa 89% 8.8mm
28/01:30am SE 23-27 kts 21.7°c 1017.2 hPa 96% 8.8mm
28/01:01am SE 16-29 kts 21.6°c 1017.6 hPa 99% 8.6mm
28/01:00am SE 15-18 kts 21.7°c 1017.6 hPa 99% 8.6mm
28/12:44am SE 21-31 kts 20.9°c 1017.8 hPa 99% 8.6mm
28/12:30am SE 25-32 kts 21.1°c 1017.7 hPa 96% 8.4mm
28/12:00am SSE 22-26 kts 21.8°c 1018.1 hPa 99% 8.4mm